St. Petersburg, FL

4:07 PM EST on November 22, 2017 (GMT -0500)
Whitted

Weather History for KSPG - July, 2013

Change the Weather History Date:

Tuesday, July 2, 2013

  Actual Average Record
Temperature  
Mean Temperature 80 °F -  
Max Temperature 88 °F 90 °F 95 °F (1961)
Min Temperature 73 °F 76 °F 68 °F (1948)
Cooling Degree Days 16    
Growing Degree Days 30 (Base 50)    
Moisture  
Dew Point 75 °F    
Average Humidity 92    
Maximum Humidity 100    
Minimum Humidity 59    
Precipitation  
Precipitation 0.82 in - - ()
Sea Level Pressure  
Sea Level Pressure 30.00 in    
Wind  
Wind Speed 19 mph (SSE)    
Max Wind Speed 32 mph    
Max Gust Speed 44 mph    
Visibility 8 miles    
Events Rain , Thunderstorm    
Averages and records for this station are not official NWS values.
T = Trace of Precipitation, MM = Missing Value Source: NWS Daily Summary

Daily Weather History Graph

Daily Weather History Graph

Search for Another Location

Airport or City:

Trip Planner

Search our weather history database for the weather conditions in past years. The results will help you decide how hot, cold, wet, or windy it might be!

Date:

Astronomy

Jul. 02, 2013 Rise Set
Actual Time 6:38 AM EDT 8:30 PM EDT
Civil Twilight 6:12 AM EDT 8:56 PM EDT
Nautical Twilight 5:40 AM EDT 9:28 PM EDT
Astronomical Twilight 5:06 AM EDT 10:02 PM EDT
Moon 2:26 AM EDT (7/2) 3:54 PM EDT (7/2)
Length of Visible Light 14h 44m
Length of Day
13h 51m
Waning Crescent, 26% of the Moon is Illuminated
Jul 2
Waning Crescent
Jul 8
New
Jul 15
First Quarter
Jul 22
Full
Jul 29
Last Quarter

Hourly Weather History & Observations

Time (EDT) Temp. Heat Index Dew Point Humidity Pressure Visibility Wind Dir Wind Speed Gust Speed Precip Events Conditions
12:00 AM 75.0 °F - 75.0 °F 100% 29.98 in 2.0 mi SE 20.7 mph - 0.05 in Rain Rain
12:06 AM 75.0 °F - 75.0 °F 100% 29.97 in 1.8 mi SSE 19.6 mph - 0.15 in Rain Heavy Rain
12:16 AM 75.0 °F - 75.0 °F 100% 29.97 in 2.0 mi SSE 23.0 mph - 0.23 in Rain Rain
12:20 AM 75.0 °F - 75.0 °F 100% 29.97 in 3.0 mi SSE 21.9 mph - 0.24 in Rain Rain
12:49 AM 75.2 °F - 75.2 °F 100% 29.96 in 10.0 mi SSE 23.0 mph - 0.25 in   Overcast
12:53 AM 75.0 °F - 75.0 °F 100% 29.96 in 10.0 mi SSE 23.0 mph - 0.25 in   Overcast
1:26 AM 75.9 °F - 75.9 °F 100% 29.96 in 10.0 mi SSE 20.7 mph - N/A   Overcast
1:41 AM 75.0 °F - 75.0 °F 100% 29.96 in 9.0 mi South 19.6 mph - 0.00 in Rain Light Rain
1:53 AM 75.0 °F - 75.0 °F 100% 29.96 in 8.0 mi South 18.4 mph - 0.00 in Rain Light Rain
2:00 AM 75.9 °F - 75.9 °F 100% 29.96 in 4.0 mi SSE 19.6 mph - 0.03 in Rain Rain
2:11 AM 75.0 °F - 75.0 °F 100% 29.95 in 10.0 mi SSE 21.9 mph - 0.03 in Rain Light Rain
2:23 AM 75.0 °F - 75.0 °F 100% 29.95 in 10.0 mi South 18.4 mph - 0.03 in   Overcast
2:53 AM 75.9 °F - 75.0 °F 97% 29.96 in 4.0 mi SSW 20.7 mph - 0.08 in Rain Light Rain
2:56 AM 75.9 °F - 75.0 °F 97% 29.96 in 1.5 mi SSW 23.0 mph 38.0 mph 0.15 in Rain Heavy Rain
3:00 AM 75.0 °F - 75.0 °F 100% 29.95 in 0.8 mi South 26.5 mph 38.0 mph 0.25 in Rain Heavy Rain
3:06 AM 75.0 °F - 75.0 °F 100% 29.95 in 1.0 mi South 32.2 mph 38.0 mph 0.31 in Rain Heavy Rain
3:11 AM 73.9 °F - 73.9 °F 100% 29.96 in 2.0 mi South 26.5 mph 35.7 mph 0.31 in Rain Light Rain
3:14 AM 75.0 °F - 75.0 °F 100% 29.96 in 4.0 mi South 24.2 mph - 0.31 in Rain Light Rain
3:53 AM 75.9 °F - 73.9 °F 94% 29.96 in 10.0 mi South 17.3 mph - 0.31 in   Overcast
4:53 AM 75.0 °F - 75.0 °F 100% 29.96 in 10.0 mi South 18.4 mph - 0.00 in Rain Light Rain
5:08 AM 75.9 °F - 75.0 °F 97% 29.96 in 10.0 mi South 16.1 mph - 0.00 in Rain , Thunderstorm Light Rain
5:23 AM 75.9 °F - 75.0 °F 97% 29.97 in 9.0 mi South 17.3 mph - 0.00 in Rain Light Rain
5:46 AM 75.9 °F - 75.0 °F 97% 29.97 in 10.0 mi South 17.3 mph - 0.00 in Thunderstorm Partly Cloudy
5:53 AM 75.9 °F - 75.0 °F 97% 29.98 in 10.0 mi South 18.4 mph - 0.00 in Thunderstorm Scattered Clouds
6:25 AM 75.9 °F - 73.9 °F 94% 29.99 in 10.0 mi South 17.3 mph - N/A   Overcast
6:47 AM 75.2 °F - 73.4 °F 94% 29.98 in 1.5 mi South 26.5 mph 31.1 mph 0.12 in Rain Heavy Rain
6:53 AM 73.9 °F - 73.0 °F 97% 29.99 in 1.0 mi South 16.1 mph - 0.17 in Rain Heavy Rain
6:56 AM 75.0 °F - 73.0 °F 94% 29.99 in 2.0 mi South 16.1 mph - 0.00 in Rain Light Rain
6:58 AM 75.0 °F - 73.9 °F 96% 29.99 in 4.0 mi South 18.4 mph - 0.00 in Rain Light Rain
7:53 AM 75.9 °F - 73.9 °F 94% 30.01 in 10.0 mi South 11.5 mph - 0.01 in   Partly Cloudy
8:53 AM 77.0 °F - 75.0 °F 94% 30.03 in 10.0 mi North - - N/A   Clear
10:53 AM 82.0 °F 89.4 °F 75.9 °F 82% 30.03 in 10.0 mi South 12.7 mph - N/A   Clear
11:53 AM 82.9 °F 90.8 °F 75.9 °F 79% 30.04 in 10.0 mi South 9.2 mph - N/A   Clear
12:53 PM 86.0 °F 96.0 °F 75.9 °F 72% 30.05 in 10.0 mi South 9.2 mph - N/A   Clear
1:53 PM 87.1 °F 96.3 °F 75.0 °F 67% 30.04 in 10.0 mi South 8.1 mph - N/A   Clear
2:53 PM 88.0 °F 94.7 °F 72.0 °F 59% 30.03 in 10.0 mi SW 9.2 mph - N/A   Partly Cloudy
3:53 PM 84.0 °F 91.9 °F 75.0 °F 74% 30.01 in 10.0 mi West 12.7 mph - N/A   Clear
4:50 PM 80.6 °F 85.4 °F 73.4 °F 79% 30.06 in 10.0 mi SE 28.8 mph 43.7 mph N/A   Mostly Cloudy
4:53 PM 79.0 °F - 73.9 °F 84% 30.06 in 10.0 mi SE 26.5 mph 38.0 mph N/A   Mostly Cloudy
5:00 PM 79.0 °F - 75.0 °F 88% 30.04 in 10.0 mi SE 20.7 mph 34.5 mph N/A   Mostly Cloudy
5:53 PM 80.1 °F 84.2 °F 73.0 °F 79% 30.01 in 10.0 mi South 11.5 mph - N/A   Clear
6:53 PM 79.0 °F - 73.9 °F 84% 30.03 in 10.0 mi SE 11.5 mph - N/A   Clear
7:53 PM 79.0 °F - 73.9 °F 84% 30.06 in 10.0 mi SE 12.7 mph - N/A   Partly Cloudy
8:53 PM 79.0 °F - 73.9 °F 84% 30.07 in 10.0 mi SE 9.2 mph - N/A   Clear
9:53 PM 79.0 °F - 75.0 °F 88% 30.06 in 10.0 mi SSE 15.0 mph - N/A   Scattered Clouds
10:53 PM 79.0 °F - 75.0 °F 88% 30.06 in 10.0 mi SSE 13.8 mph - N/A   Clear
11:53 PM 78.1 °F - 75.0 °F 90% 30.08 in 10.0 mi SSE 13.8 mph - N/A   Scattered Clouds